Find SAMSON 1

NORAD ID: 47937 Int'l Des: NNA 2021-022 Owner: TECN Country: IL operational
LEOCIRCULARRETROGRADESSO

リアルタイム位置

3D地球を読み込み中...

SAMSON 1について

説明を読み込み中...

次回通過

Passes for default location (London). Set your location on the main map for personalized predictions.

高度履歴

Loading altitude history...

軌道要素

1 47937U 21022F 26105.30729495 .00004467 00000-0 14673-3 0 9995
2 47937 97.3954 6.0877 0008606 326.1583 33.9109 15.32064574280085
Epoch: Apr 15, 2026 • Age: 4 hours

現在のステータス

高度 478.7 km
速度 7.62 km/s
衛星直下点 -9.64°S, 171.33°E
打ち上げ日 Mar 22, 2021
運用期間 5 years
タイプ other

技術仕様

分類 Payload
質量 12.00 kg
乾燥質量 12.00 kg
総質量 12.00 kg
長さ 0.30 m
直径 0.20 m
スパン 0.70 m
形状 Box + 4 pan
製造者 TECN
バスタイプ Cubesat 6U
フェーズステータス In Orbit
所有者/国 TECN/IL

Most Searched